| time (UTC) | temp C | wind direction | speed KPH | gust KPH | rain 1hr cm | rain 24hr cm | rain mn cm | humidity % | barometer mb |
| 20260504050003 | 2 | 360 | 9.7 | 0.0 | 0.00 | 0.00 | 0.00 | 93 | 1005.0 |
| 20260504044504 | 2 | 10 | 8.0 | 0.0 | 0.00 | 0.00 | 0.00 | 93 | 1004.0 |
| 20260504043004 | 2 | 10 | 8.0 | 0.0 | 0.00 | 0.00 | 0.00 | 93 | 1004.0 |
| 20260504041504 | 2 | 360 | 9.7 | 0.0 | 0.00 | 0.00 | 0.00 | 93 | 1004.0 |
| 20260504040004 | 2 | 360 | 9.7 | 0.0 | 0.00 | 0.00 | 0.00 | 93 | 1004.0 |
| 20260504034504 | 3 | 10 | 12.9 | 0.0 | 0.00 | 0.00 | 0.00 | 86 | 1004.0 |
| 20260504033004 | 3 | 10 | 12.9 | 0.0 | 0.00 | 0.00 | 0.00 | 86 | 1004.0 |
| 20260504031503 | 3 | 20 | 12.9 | 0.0 | 0.00 | 0.00 | 0.00 | 86 | 1004.0 |
| 20260504021504 | 3 | 30 | 14.5 | 0.0 | 0.00 | 0.00 | 0.00 | 86 | 1003.0 |
| 20260504014504 | 3 | 30 | 14.5 | 0.0 | 0.00 | 0.00 | 0.00 | 86 | 1003.0 |
| 20260504013005 | 3 | 30 | 14.5 | 0.0 | 0.00 | 0.00 | 0.00 | 86 | 1003.0 |
| 20260504011503 | 3 | 50 | 1.6 | 0.0 | 0.00 | 0.00 | 0.00 | 93 | 1004.0 |
| 20260504010005 | 3 | 50 | 1.6 | 0.0 | 0.00 | 0.00 | 0.00 | 93 | 1004.0 |
| 20260504004504 | 5 | 70 | 19.3 | 0.0 | 0.00 | 0.00 | 0.00 | 86 | 1004.0 |
| 20260504003005 | 5 | 70 | 19.3 | 0.0 | 0.00 | 0.00 | 0.00 | 86 | 1004.0 |
| 20260504000005 | 5 | 70 | 12.9 | 0.0 | 0.00 | 0.00 | 0.00 | 80 | 1004.0 |
| 20260503230004 | 5 | 80 | 22.5 | 0.0 | 0.00 | 0.00 | 0.00 | 80 | 1003.0 |
| 20260503221503 | 6 | 90 | 24.1 | 0.0 | 0.00 | 0.00 | 0.00 | 75 | 1003.0 |
| 20260503214503 | 5 | 70 | 20.9 | 0.0 | 0.00 | 0.00 | 0.00 | 86 | 1003.0 |
| 20260503211504 | 6 | 90 | 25.7 | 0.0 | 0.00 | 0.00 | 0.00 | 81 | 1003.0 |
| 20260503210005 | 5 | 90 | 19.3 | 0.0 | 0.00 | 0.00 | 0.00 | 80 | 1003.0 |
| 20260503204505 | 6 | 90 | 25.7 | 0.0 | 0.00 | 0.00 | 0.00 | 81 | 1003.0 |
| 20260503203004 | 6 | 90 | 25.7 | 0.0 | 0.00 | 0.00 | 0.00 | 81 | 1003.0 |
| 20260503201504 | 6 | 90 | 1.6 | 0.0 | 0.00 | 0.00 | 0.00 | 81 | 1004.0 |
| 20260503200004 | 6 | 90 | 1.6 | 0.0 | 0.00 | 0.00 | 0.00 | 81 | 1004.0 |
| 20260503194503 | 6 | 80 | 25.7 | 0.0 | 0.00 | 0.00 | 0.00 | 81 | 1003.0 |
| 20260503193004 | 6 | 80 | 25.7 | 0.0 | 0.00 | 0.00 | 0.00 | 81 | 1003.0 |
| 20260503191504 | 6 | 80 | 27.4 | 0.0 | 0.00 | 0.00 | 0.00 | 87 | 1003.0 |
| 20260503183003 | 7 | 80 | 3.2 | 0.0 | 0.00 | 0.00 | 0.00 | 75 | 1003.0 |
| 20260503180004 | 7 | 80 | 25.7 | 0.0 | 0.00 | 0.00 | 0.00 | 81 | 1003.0 |
| 20260503174503 | 7 | 70 | 3.2 | 0.0 | 0.00 | 0.00 | 0.00 | 81 | 1003.0 |
| 20260503173003 | 7 | 70 | 3.2 | 0.0 | 0.00 | 0.00 | 0.00 | 81 | 1003.0 |
| 20260503171503 | 7 | 70 | 25.7 | 0.0 | 0.00 | 0.00 | 0.00 | 81 | 1003.0 |